• In Austria
  • List of Countries
  • For 7 days
  • Water Temperature
  • Satellite Maps
  • Weather Map
  • News
  • Weather Widgets
  • user-avatar
    Login

    Hourly Weather Kengtung

    Today, 19 July, Thursday

    Time Temperature Precipitation Wind Pressure Humidity
    00:00 +24°C° 0 mm 0 mps 694 mmHg 80%
    01:00 +23°C° 0 mm 0 mps 694 mmHg 83%
    02:00 +23°C° 0 mm 0 mps 694 mmHg 84%
    03:00 +22°C° 0 mm 0 mps 694 mmHg 86%
    04:00 +22°C° 0 mm 0 mps 694 mmHg 87%
    05:00 +23°C° 0 mm 0 mps 694 mmHg 86%
    06:00 +23°C° 0 mm 0 mps 694 mmHg 84%
    07:00 +25°C° 0 mm 0 mps 695 mmHg 80%
    08:00 +27°C° 0 mm 0 mps 695 mmHg 71%
    09:00 +30°C° 0 mm 0 mps 695 mmHg 62%
    10:00 +33°C° 0 mm 0 mps 695 mmHg 53%
    11:00 +34°C° 0.4 mm 0 mps 695 mmHg 51%
    12:00 +35°C° 0.4 mm 0 mps 694 mmHg 50%
    13:00 +35°C° 0.4 mm 0 mps 694 mmHg 48%
    14:00 +34°C° 0.4 mm 0 mps 693 mmHg 52%
    15:00 +33°C° 0.4 mm 0 mps 693 mmHg 55%
    16:00 +35°C° 0.4 mm 1 mps 692 mmHg 59%
    17:00 +33°C° 0.7 mm 1 mps 692 mmHg 67%
    18:00 +29°C° 0.7 mm 0 mps 692 mmHg 75%
    19:00 +27°C° 0.7 mm 0 mps 692 mmHg 84%
    20:00 +28°C° 1 mm 1 mps 692 mmHg 86%
    21:00 +27°C° 1 mm 1 mps 693 mmHg 88%
    22:00 +26°C° 1 mm 1 mps 694 mmHg 90%
    23:00 +26°C° 1.7 mm 1 mps 694 mmHg 92%

    Tomorrow, 20 July, Friday

    Time Temperature Precipitation Wind Pressure Humidity
    00:00 +25°C° 1.7 mm 1 mps 694 mmHg 95%
    01:00 +23°C° 1.7 mm 0 mps 694 mmHg 97%
    02:00 +23°C° 1.2 mm 0 mps 694 mmHg 97%
    03:00 +23°C° 1.2 mm 0 mps 694 mmHg 97%
    04:00 +23°C° 1.2 mm 0 mps 694 mmHg 98%
    05:00 +23°C° 0.5 mm 0 mps 694 mmHg 97%
    06:00 +23°C° 0.5 mm 0 mps 694 mmHg 97%
    07:00 +23°C° 0.5 mm 0 mps 694 mmHg 97%
    08:00 +25°C° 0.3 mm 0 mps 695 mmHg 89%
    09:00 +26°C° 0.3 mm 0 mps 695 mmHg 81%
    10:00 +28°C° 0.3 mm 0 mps 696 mmHg 73%
    11:00 +31°C° 0.6 mm 1 mps 695 mmHg 72%
    12:00 +31°C° 0.6 mm 1 mps 695 mmHg 71%
    13:00 +32°C° 0.6 mm 1 mps 695 mmHg 70%
    14:00 +31°C° 1.2 mm 1 mps 694 mmHg 77%
    15:00 +30°C° 1.2 mm 1 mps 694 mmHg 84%
    16:00 +29°C° 1.2 mm 1 mps 694 mmHg 91%
    17:00 +28°C° 1.1 mm 1 mps 694 mmHg 93%
    18:00 +27°C° 1.1 mm 1 mps 694 mmHg 95%
    19:00 +26°C° 1.1 mm 1 mps 694 mmHg 97%
    20:00 +26°C° 0.8 mm 1 mps 695 mmHg 97%
    21:00 +25°C° 0.8 mm 1 mps 695 mmHg 97%
    22:00 +25°C° 0.8 mm 1 mps 696 mmHg 97%
    23:00 +25°C° 3.2 mm 1 mps 696 mmHg 98%

    Day after tomorrow, 21 July, Saturday

    Time Temperature Precipitation Wind Pressure Humidity
    00:00 +23°C° 3.2 mm 0 mps 696 mmHg 98%
    01:00 +23°C° 3.2 mm 0 mps 695 mmHg 98%
    02:00 +23°C° 6.2 mm 0 mps 695 mmHg 99%
    03:00 +22°C° 6.2 mm 0 mps 695 mmHg 99%
    04:00 +22°C° 6.2 mm 0 mps 695 mmHg 99%
    05:00 +22°C° 5.8 mm 0 mps 695 mmHg 99%
    06:00 +22°C° 5.8 mm 0 mps 695 mmHg 99%
    07:00 +24°C° 5.8 mm 1 mps 695 mmHg 99%
    08:00 +24°C° 3.1 mm 1 mps 695 mmHg 99%
    09:00 +24°C° 3.1 mm 1 mps 696 mmHg 99%
    10:00 +25°C° 3.1 mm 1 mps 696 mmHg 99%
    11:00 +23°C° 1.1 mm 0 mps 696 mmHg 98%
    12:00 +23°C° 1.1 mm 0 mps 696 mmHg 97%
    13:00 +24°C° 1.1 mm 0 mps 696 mmHg 97%
    14:00 +24°C° 0.6 mm 0 mps 696 mmHg 94%
    15:00 +25°C° 0.6 mm 0 mps 695 mmHg 92%
    16:00 +25°C° 0.6 mm 0 mps 695 mmHg 89%
    17:00 +24°C° 0.5 mm 0 mps 695 mmHg 91%
    18:00 +24°C° 0.5 mm 0 mps 695 mmHg 93%
    19:00 +23°C° 0.5 mm 0 mps 695 mmHg 96%
    20:00 +23°C° 0.3 mm 0 mps 695 mmHg 96%
    21:00 +22°C° 0.3 mm 0 mps 696 mmHg 97%
    22:00 +22°C° 0.3 mm 0 mps 697 mmHg 97%
    23:00 +22°C° 0.5 mm 0 mps 696 mmHg 97%

    22 July, Sunday

    Time Temperature Precipitation Wind Pressure Humidity
    00:00 +22°C° 0.5 mm 0 mps 696 mmHg 98%
    01:00 +22°C° 0.5 mm 0 mps 696 mmHg 98%
    02:00 +22°C° 0.5 mm 0 mps 695 mmHg 98%
    03:00 +21°C° 0.5 mm 0 mps 695 mmHg 98%
    04:00 +21°C° 0.5 mm 0 mps 695 mmHg 98%
    05:00 +21°C° 0.3 mm 0 mps 695 mmHg 98%
    06:00 +22°C° 0.3 mm 0 mps 695 mmHg 98%
    07:00 +22°C° 0.3 mm 0 mps 695 mmHg 98%
    08:00 +23°C° 0.2 mm 0 mps 696 mmHg 94%
    09:00 +24°C° 0.2 mm 0 mps 696 mmHg 90%
    10:00 +25°C° 0.2 mm 0 mps 696 mmHg 87%
    11:00 +26°C° 0.9 mm 0 mps 696 mmHg 88%
    12:00 +28°C° 0.9 mm 1 mps 696 mmHg 89%
    13:00 +28°C° 0.9 mm 1 mps 695 mmHg 91%
    14:00 +28°C° 1.2 mm 1 mps 695 mmHg 91%
    15:00 +28°C° 1.2 mm 1 mps 694 mmHg 90%
    16:00 +28°C° 1.2 mm 1 mps 694 mmHg 90%
    17:00 +28°C° 0.9 mm 1 mps 694 mmHg 92%
    18:00 +27°C° 0.9 mm 1 mps 694 mmHg 95%
    19:00 +26°C° 0.9 mm 1 mps 694 mmHg 97%
    20:00 +23°C° 0.3 mm 0 mps 695 mmHg 97%
    21:00 +22°C° 0.3 mm 0 mps 695 mmHg 98%
    22:00 +22°C° 0.3 mm 0 mps 696 mmHg 98%
    23:00 +22°C° 0.2 mm 0 mps 696 mmHg 99%

    23 July, Monday

    Time Temperature Precipitation Wind Pressure Humidity
    00:00 +22°C° 0.2 mm 0 mps 695 mmHg 99%
    01:00 +21°C° 0.2 mm 0 mps 695 mmHg 99%
    02:00 +21°C° 0.2 mm 0 mps 695 mmHg 99%
    03:00 +21°C° 0.2 mm 0 mps 695 mmHg 99%
    04:00 +21°C° 0.2 mm 0 mps 695 mmHg 99%
    05:00 +22°C° 0 mm 0 mps 695 mmHg 98%
    06:00 +22°C° 0 mm 0 mps 695 mmHg 98%
    07:00 +22°C° 0 mm 0 mps 695 mmHg 97%
    08:00 +23°C° 0 mm 0 mps 696 mmHg 93%
    09:00 +24°C° 0 mm 0 mps 696 mmHg 88%
    10:00 +26°C° 0 mm 0 mps 697 mmHg 84%
    11:00 +27°C° 0.2 mm 0 mps 696 mmHg 77%
    12:00 +31°C° 0.2 mm 1 mps 696 mmHg 71%
    13:00 +32°C° 0.2 mm 1 mps 695 mmHg 64%
    14:00 +32°C° 0.3 mm 1 mps 695 mmHg 65%
    15:00 +32°C° 0.3 mm 1 mps 694 mmHg 66%
    16:00 +32°C° 0.3 mm 1 mps 694 mmHg 66%
    17:00 +30°C° 0.4 mm 1 mps 694 mmHg 74%
    18:00 +28°C° 0.4 mm 1 mps 694 mmHg 82%
    19:00 +27°C° 0.4 mm 1 mps 694 mmHg 89%
    20:00 +26°C° 0.2 mm 1 mps 695 mmHg 91%
    21:00 +23°C° 0.2 mm 0 mps 695 mmHg 92%
    22:00 +23°C° 0.2 mm 0 mps 696 mmHg 94%
    23:00 +23°C° 0 mm 0 mps 695 mmHg 95%

    24 July, Tuesday

    Time Temperature Precipitation Wind Pressure Humidity
    00:00 +22°C° 0 mm 0 mps 695 mmHg 95%
    01:00 +22°C° 0 mm 0 mps 695 mmHg 96%
    02:00 +22°C° 0.1 mm 0 mps 695 mmHg 96%
    03:00 +22°C° 0.1 mm 0 mps 695 mmHg 96%
    04:00 +22°C° 0.1 mm 0 mps 695 mmHg 97%
    05:00 +22°C° 0.1 mm 0 mps 695 mmHg 96%
    06:00 +22°C° 0.1 mm 0 mps 695 mmHg 95%
    07:00 +22°C° 0.1 mm 0 mps 696 mmHg 95%
    08:00 +24°C° 0.1 mm 0 mps 696 mmHg 89%
    09:00 +27°C° 0.1 mm 1 mps 696 mmHg 83%
    10:00 +29°C° 0.1 mm 1 mps 697 mmHg 77%
    11:00 +30°C° 0.3 mm 1 mps 696 mmHg 73%
    12:00 +30°C° 0.3 mm 1 mps 696 mmHg 70%
    13:00 +31°C° 0.3 mm 1 mps 695 mmHg 66%
    14:00 +31°C° 0.4 mm 1 mps 695 mmHg 66%
    15:00 +31°C° 0.4 mm 1 mps 694 mmHg 67%
    16:00 +31°C° 0.4 mm 1 mps 694 mmHg 67%
    17:00 +30°C° 0.5 mm 1 mps 694 mmHg 75%
    18:00 +28°C° 0.5 mm 1 mps 694 mmHg 83%
    19:00 +25°C° 0.5 mm 0 mps 694 mmHg 91%
    20:00 +24°C° 0.3 mm 0 mps 695 mmHg 92%
    21:00 +24°C° 0.3 mm 0 mps 695 mmHg 93%
    22:00 +23°C° 0.3 mm 0 mps 695 mmHg 95%
    23:00 +23°C° 0.4 mm 0 mps 695 mmHg 95%
    Show more